Albany, NY

10:53 AM EDT on August 23, 2017 (GMT -0400)
Albany International

Weather History for KALB - July, 2012

Change the Weather History Date:

Sunday, July 1, 2012

  Actual Average Record
Temperature  
Mean Temperature 77 °F 71 °F  
Max Temperature 89 °F 81 °F 99 °F (1933)
Min Temperature 64 °F 60 °F 45 °F (1978)
Degree Days  
Heating Degree Days 0 0  
Month to date heating degree days 0 0  
Since 1 June heating degree days 47 52  
Since 1 July heating degree days 0 0  
Cooling Degree Days 12 6  
Month to date cooling degree days 12 6  
Year to date cooling degree days 223 154  
Since 1 June cooling degree days 145 124  
Growing Degree Days 26 (Base 50)    
Moisture  
Dew Point 57 °F    
Average Humidity 53    
Maximum Humidity 78    
Minimum Humidity 27    
Precipitation  
Precipitation 0.00 in 0.13 in 2.76 in (2009)
Month to date precipitation 0.00 0.13  
Year to date precipitation 15.95 18.70  
Sea Level Pressure  
Sea Level Pressure 29.81 in    
Wind  
Wind Speed 7 mph (WNW)    
Max Wind Speed 22 mph    
Max Gust Speed 29 mph    
Visibility 10 miles    
Events Thunderstorm    
T = Trace of Precipitation, MM = Missing Value Source: NWS Daily Summary

Daily Weather History Graph

Daily Weather History Graph

Search for Another Location

Airport or City:

Trip Planner

Search our weather history database for the weather conditions in past years. The results will help you decide how hot, cold, wet, or windy it might be!

Date:

Astronomy

Jul. 01, 2012 Rise Set
Actual Time 5:21 AM EDT 8:37 PM EDT
Civil Twilight 4:46 AM EDT 9:11 PM EDT
Nautical Twilight 4:00 AM EDT 9:57 PM EDT
Astronomical Twilight 3:05 AM EDT 10:52 PM EDT
Moon 6:36 PM EDT (7/1) 3:06 AM EDT (7/1)
Length of Visible Light 16h 25m
Length of Day
15h 16m
Waxing Gibbous, 94% of the Moon is Illuminated
Jul 1
Waxing Gibbous
Jul 3
Full
Jul 10
Last Quarter
Jul 19
New
Jul 26
First Quarter

Hourly Weather History & Observations

Time (EDT) Temp. Heat Index Dew Point Humidity Pressure Visibility Wind Dir Wind Speed Gust Speed Precip Events Conditions
12:51 AM 69.1 °F - 59.0 °F 70% 29.75 in 10.0 mi WSW 3.5 mph - N/A   Partly Cloudy
1:51 AM 70.0 °F - 59.0 °F 68% 29.75 in 10.0 mi South 5.8 mph - N/A   Partly Cloudy
2:51 AM 70.0 °F - 60.1 °F 71% 29.76 in 10.0 mi WSW 5.8 mph - N/A   Clear
3:51 AM 69.1 °F - 60.1 °F 73% 29.76 in 10.0 mi Calm Calm - N/A   Partly Cloudy
4:51 AM 66.2 °F - 59.0 °F 78% 29.78 in 10.0 mi SE 3.5 mph - N/A   Partly Cloudy
5:51 AM 66.0 °F - 59.0 °F 78% 29.79 in 10.0 mi Calm Calm - N/A   Scattered Clouds
6:51 AM 72.0 °F - 63.0 °F 73% 29.80 in 10.0 mi Calm Calm - N/A   Scattered Clouds
7:51 AM 75.0 °F - 61.0 °F 62% 29.82 in 10.0 mi Calm Calm - N/A   Scattered Clouds
8:51 AM 79.0 °F - 60.1 °F 52% 29.82 in 10.0 mi Variable 3.5 mph - N/A   Scattered Clouds
9:51 AM 82.0 °F 81.7 °F 57.0 °F 42% 29.81 in 10.0 mi WSW 9.2 mph - N/A   Scattered Clouds
10:51 AM 84.0 °F 83.0 °F 55.9 °F 38% 29.81 in 10.0 mi West 9.2 mph - N/A   Partly Cloudy
11:51 AM 86.0 °F 84.7 °F 55.9 °F 36% 29.81 in 10.0 mi West 5.8 mph 19.6 mph N/A   Scattered Clouds
12:51 PM 88.0 °F 86.7 °F 57.0 °F 35% 29.81 in 10.0 mi WNW 11.5 mph - N/A   Scattered Clouds
1:51 PM 89.1 °F 87.7 °F 57.0 °F 34% 29.80 in 10.0 mi WNW 15.0 mph 21.9 mph N/A   Scattered Clouds
2:51 PM 88.0 °F 86.1 °F 55.0 °F 32% 29.78 in 10.0 mi NW 12.7 mph 19.6 mph N/A   Scattered Clouds
3:51 PM 88.0 °F 85.9 °F 54.0 °F 31% 29.79 in 10.0 mi WNW 13.8 mph 23.0 mph N/A   Scattered Clouds
4:51 PM 88.0 °F - 52.0 °F 29% 29.80 in 10.0 mi WNW 15.0 mph - N/A   Scattered Clouds
5:51 PM 86.0 °F - 48.9 °F 28% 29.81 in 10.0 mi West 16.1 mph 26.5 mph N/A   Partly Cloudy
6:51 PM 82.9 °F - 48.0 °F 29% 29.81 in 10.0 mi WNW 16.1 mph 28.8 mph N/A   Scattered Clouds
7:51 PM 81.0 °F - 52.0 °F 36% 29.81 in 10.0 mi West 12.7 mph - N/A   Partly Cloudy
8:51 PM 77.0 °F - 52.0 °F 42% 29.81 in 10.0 mi WNW 8.1 mph - N/A   Scattered Clouds
9:51 PM 75.0 °F - 59.0 °F 57% 29.85 in 10.0 mi NE 4.6 mph - N/A   Mostly Cloudy
10:39 PM 73.4 °F - 62.6 °F 69% 29.88 in 10.0 mi NNE 6.9 mph - N/A Thunderstorm Thunderstorm
10:51 PM 72.0 °F - 62.1 °F 71% 29.88 in 10.0 mi ENE 5.8 mph - N/A Thunderstorm Thunderstorm
11:07 PM 71.6 °F - 62.6 °F 73% 29.88 in 10.0 mi SSE 3.5 mph - N/A   Scattered Clouds
11:51 PM 71.1 °F - 62.1 °F 73% 29.88 in 10.0 mi Calm Calm - N/A   Scattered Clouds